Fairfield, OH

7:46 PM EST on February 24, 2017 (GMT -0500)
Butler County Regional

Weather History for KHAO - February, 2013

Change the Weather History Date:

Saturday, February 16, 2013

  Actual Average (KLUK) Record (KLUK)
Temperature  
Mean Temperature 22 °F -  
Max Temperature 30 °F 42 °F 68 °F (2011)
Min Temperature 14 °F 25 °F 1 °F (1991)
Degree Days  
Heating Degree Days 43    
Moisture  
Dew Point 14 °F    
Average Humidity 71    
Maximum Humidity 92    
Minimum Humidity 49    
Precipitation  
Precipitation 0.00 in - - ()
Sea Level Pressure  
Sea Level Pressure 30.13 in    
Wind  
Wind Speed 5 mph (WNW)    
Max Wind Speed 15 mph    
Max Gust Speed 20 mph    
Visibility 8 miles    
Events Snow    
Averages and records for this station are not official NWS values.
T = Trace of Precipitation, MM = Missing Value Source: NWS Daily Summary

Daily Weather History Graph

Daily Weather History Graph

Search for Another Location

Airport or City:

Trip Planner

Search our weather history database for the weather conditions in past years. The results will help you decide how hot, cold, wet, or windy it might be!

Date:

Astronomy

Feb. 16, 2013 Rise Set
Actual Time 7:28 AM EST 6:16 PM EST
Civil Twilight 7:01 AM EST 6:43 PM EST
Nautical Twilight 6:29 AM EST 7:15 PM EST
Astronomical Twilight 5:58 AM EST 7:46 PM EST
Moon 10:43 AM EST (2/16) 12:13 AM EST (2/16)
Length of Visible Light 11h 42m
Length of Day
10h 47m
Waxing Crescent, 39% of the Moon is Illuminated
Feb 16
Waxing Crescent
Feb 17
First Quarter
Feb 25
Full
Mar 4
Last Quarter
Mar 11
New

Hourly Weather History & Observations

Time (EST) Temp. Windchill Dew Point Humidity Pressure Visibility Wind Dir Wind Speed Gust Speed Precip Events Conditions
12:53 AM 18.0 °F - 14.0 °F 84% 30.18 in 6.0 mi Calm Calm - N/A   Clear
1:53 AM 18.0 °F - 15.1 °F 88% 30.17 in 8.0 mi Calm Calm - N/A   Clear
2:53 AM 17.1 °F - 15.1 °F 92% 30.16 in 7.0 mi Calm Calm - N/A   Clear
3:53 AM 16.0 °F - 12.0 °F 84% 30.14 in 7.0 mi Calm Calm - 0.00 in   Clear
4:53 AM 15.1 °F - 12.0 °F 88% 30.13 in 7.0 mi Calm Calm - 0.00 in   Clear
5:53 AM 14.0 °F - 10.9 °F 88% 30.13 in 7.0 mi Calm Calm - N/A   Mostly Cloudy
6:53 AM 16.0 °F - 12.9 °F 88% 30.12 in 6.0 mi Calm Calm - N/A   Mostly Cloudy
7:53 AM 16.0 °F - 12.9 °F 88% 30.12 in 5.0 mi Calm Calm - N/A   Partly Cloudy
8:53 AM 24.1 °F 19.7 °F 21.0 °F 88% 30.13 in 6.0 mi WSW 3.5 mph - 0.00 in   Clear
9:53 AM 27.0 °F 20.5 °F 19.9 °F 75% 30.12 in 9.0 mi West 5.8 mph - 0.00 in Snow Light Snow
10:48 AM 26.6 °F 16.8 °F 19.4 °F 74% 30.10 in 9.0 mi WNW 10.4 mph - 0.00 in Snow Light Snow
10:53 AM 26.1 °F 15.0 °F 18.0 °F 71% 30.13 in 9.0 mi NW 12.7 mph - 0.00 in Snow Light Snow
11:50 AM 26.6 °F 16.2 °F 15.8 °F 64% 30.10 in 9.0 mi WNW 11.5 mph - 0.00 in Snow Light Snow
11:53 AM 27.0 °F 16.7 °F 16.0 °F 63% 30.13 in 9.0 mi NW 11.5 mph - 0.00 in Snow Light Snow
12:53 PM 28.0 °F 19.3 °F 14.0 °F 56% 30.11 in 9.0 mi WNW 9.2 mph - 0.00 in Snow Light Snow
1:53 PM 30.0 °F 19.1 °F 12.9 °F 49% 30.09 in 9.0 mi NW 15.0 mph 19.6 mph 0.00 in Snow Light Snow
2:53 PM 28.9 °F 18.6 °F 12.0 °F 49% 30.09 in 9.0 mi WNW 12.7 mph - 0.00 in Snow Light Snow
3:53 PM 28.0 °F 17.5 °F 10.9 °F 49% 30.10 in 9.0 mi WNW 12.7 mph - 0.00 in Snow Light Snow
4:53 PM 26.1 °F 14.0 °F 10.9 °F 53% 30.12 in 9.0 mi NW 15.0 mph - 0.00 in Snow Light Snow
5:53 PM 24.1 °F 12.0 °F 12.9 °F 62% 30.14 in 9.0 mi NW 13.8 mph - 0.00 in Snow Light Snow
6:53 PM 23.0 °F 10.1 °F 12.9 °F 65% 30.15 in 9.0 mi NW 15.0 mph - 0.00 in Snow Light Snow
7:41 PM 21.2 °F 12.6 °F 15.8 °F 80% 30.12 in 2.0 mi NW 6.9 mph - 0.00 in Snow Light Snow
7:50 PM 21.2 °F 9.5 °F 14.0 °F 74% 30.13 in 6.0 mi NW 11.5 mph - 0.00 in Snow Light Snow
7:53 PM 21.9 °F 10.4 °F 14.0 °F 72% 30.16 in 8.0 mi NW 11.5 mph - 0.00 in Snow Light Snow
8:53 PM 21.9 °F 9.2 °F 10.0 °F 60% 30.16 in 10.0 mi NW 13.8 mph - 0.00 in   Overcast
9:53 PM 21.9 °F 11.0 °F 8.1 °F 55% 30.17 in 10.0 mi NW 10.4 mph - N/A   Overcast
10:53 PM 18.0 °F - 9.0 °F 68% 30.17 in 10.0 mi Calm Calm - N/A   Mostly Cloudy
11:53 PM 19.0 °F 12.3 °F 10.0 °F 68% 30.16 in 10.0 mi NW 4.6 mph - N/A   Overcast